Location: *
(51.4660°N, 0.3360°W)
Time: 05:30:26
(UTC+00:00)

Cosmos 1605 Rocket - Pass Details

Date: 19 September 2019
Orbit: 945 x 1005 km, 82.9° (Epoch: 15 October)

Event Time Altitude Azimuth Distance (km) Brightness Sun altitude
Rises 21:01:42 0° 352° (N) 3,747 7.8 -25.8°
Reaches altitude 10° 21:04:22 10° 358° (N) 2,791 6.9 -26.1°
Enters shadow 21:10:33 47° 72° (ENE) 1,297 4.4 -26.8°
